SQ4LOL-15 Weather Reports


time (UTC)temp
C
wind
direction
speed
KPH
gust
KPH
rain 1hr
cm
rain 24hr
cm
rain mn
cm
humidity
%
barometer
mb
20260906010502 13 0.0 0.0 0.00 0.00 0.00 82 993.4
20260906005502 12 0.0 0.0 0.00 0.00 0.00 82 993.3
20260906004502 12 0.0 0.0 0.00 0.00 0.00 82 993.3
20260906003502 13 0.0 0.0 0.00 0.00 0.00 82 993.3
20260906002502 12 0.0 0.0 0.00 0.00 0.00 82 993.3
20260906001502 12 0.0 0.0 0.00 0.00 0.00 82 993.3
20260906000502 12 0.0 0.0 0.00 0.00 0.00 82 993.2
20260905234502 12 0.0 0.0 0.00 0.00 0.00 82 993.1
20260905233502 12 0.0 0.0 0.00 0.00 0.00 82 993.1
20260905232502 12 0.0 0.0 0.00 0.00 0.00 82 993.1
20260905231502 12 0.0 0.0 0.00 0.00 0.00 82 993.0
20260905230502 12 0.0 0.0 0.00 0.00 0.00 82 993.1
20260905225502 12 0.0 0.0 0.00 0.00 0.00 82 993.1
20260905224502 12 0.0 0.0 0.00 0.00 0.00 82 993.1
20260905223502 12 0.0 0.0 0.00 0.00 0.00 82 993.1
20260905222502 12 0.0 0.0 0.00 0.00 0.00 82 993.1
20260905221502 12 0.0 0.0 0.00 0.00 0.00 82 993.1
20260905220502 12 0.0 0.0 0.00 0.00 0.00 82 993.1
20260905215502 12 0.0 0.0 0.00 0.00 0.00 82 993.0
20260905214502 12 0.0 0.0 0.00 0.00 0.00 82 993.1
20260905213502 12 0.0 0.0 0.00 0.00 0.00 82 993.1
20260905212502 12 0.0 0.0 0.00 0.00 0.00 82 993.3
20260905211502 12 0.0 0.0 0.00 0.00 0.00 82 993.3
20260905210502 11 0.0 0.0 0.00 0.00 0.00 81 993.1
20260905205502 11 0.0 0.0 0.00 0.00 0.00 81 993.1
20260905204502 11 0.0 0.0 0.00 0.00 0.00 81 993.2
20260905203502 11 0.0 0.0 0.00 0.00 0.00 81 993.2
20260905202502 11 0.0 0.0 0.00 0.00 0.00 81 993.1
20260905200502 11 0.0 0.0 0.00 0.00 0.00 81 993.2
20260905195502 11 0.0 0.0 0.00 0.00 0.00 81 993.1
20260905194502 11 0.0 0.0 0.00 0.00 0.00 81 993.3
20260905193502 11 0.0 0.0 0.00 0.00 0.00 81 993.3
20260905192502 11 0.0 0.0 0.00 0.00 0.00 81 993.4
20260905191502 11 0.0 0.0 0.00 0.00 0.00 81 993.4
20260905190502 11 0.0 0.0 0.00 0.00 0.00 81 993.4
20260905185502 11 0.0 0.0 0.00 0.00 0.00 81 993.5
20260905184502 11 0.0 0.0 0.00 0.00 0.00 81 993.6
20260905183502 11 0.0 0.0 0.00 0.00 0.00 81 993.6
20260905181502 12 0.0 0.0 0.00 0.00 0.00 80 993.6
20260905180502 12 0.0 0.0 0.00 0.00 0.00 80 993.5
20260905175502 12 0.0 0.0 0.00 0.00 0.00 80 993.5
20260905174502 12 0.0 0.0 0.00 0.00 0.00 80 993.7
20260905173502 13 0.0 0.0 0.00 0.00 0.00 80 993.9
20260905172502 13 0.0 0.0 0.00 0.00 0.00 79 994.1
20260905171502 13 0.0 0.0 0.00 0.00 0.00 79 994.1
20260905170502 12 0.0 0.0 0.00 0.00 0.00 78 994.2
20260905165502 12 0.0 0.0 0.00 0.00 0.00 77 994.1
20260905164502 13 0.0 0.0 0.00 0.00 0.00 74 994.0
20260905163502 16 0.0 0.0 0.00 0.00 0.00 63 993.8
20260905162502 17 0.0 0.0 0.00 0.00 0.00 63 992.5
20260905161502 17 0.0 0.0 0.00 0.00 0.00 63 992.4
20260905160502 18 0.0 0.0 0.00 0.00 0.00 64 992.3
20260905155502 18 0.0 0.0 0.00 0.00 0.00 60 992.2
20260905154502 18 0.0 0.0 0.00 0.00 0.00 60 991.9
20260905153502 18 0.0 0.0 0.00 0.00 0.00 58 991.8
20260905152502 19 0.0 0.0 0.00 0.00 0.00 59 991.7
20260905151502 20 0.0 0.0 0.00 0.00 0.00 58 991.6
20260905150502 19 0.0 0.0 0.00 0.00 0.00 59 991.6
20260905145502 19 0.0 0.0 0.00 0.00 0.00 57 991.6
20260905143502 20 0.0 0.0 0.00 0.00 0.00 58 991.5
20260905142502 20 0.0 0.0 0.00 0.00 0.00 57 991.5
20260905141502 20 0.0 0.0 0.00 0.00 0.00 58 991.4
20260905140502 20 0.0 0.0 0.00 0.00 0.00 58 991.4
20260905135502 20 0.0 0.0 0.00 0.00 0.00 59 991.4
20260905134502 20 0.0 0.0 0.00 0.00 0.00 59 991.3
20260905133502 20 0.0 0.0 0.00 0.00 0.00 58 991.2
20260905132502 19 0.0 0.0 0.00 0.00 0.00 58 991.1
20260905131502 19 0.0 0.0 0.00 0.00 0.00 52 991.1
20260905130502 20 0.0 0.0 0.00 0.00 0.00 47 991.1
20260905124502 20 0.0 0.0 0.00 0.00 0.00 58 991.1
20260905123502 20 0.0 0.0 0.00 0.00 0.00 58 991.0
20260905122502 20 0.0 0.0 0.00 0.00 0.00 56 991.0
20260905121502 20 0.0 0.0 0.00 0.00 0.00 57 991.0
20260905120502 20 0.0 0.0 0.00 0.00 0.00 53 991.0
20260905115502 20 0.0 0.0 0.00 0.00 0.00 58 990.9
20260905114502 20 0.0 0.0 0.00 0.00 0.00 57 990.8
20260905113502 20 0.0 0.0 0.00 0.00 0.00 58 990.7
20260905112502 20 0.0 0.0 0.00 0.00 0.00 54 990.6
20260905111502 18 0.0 0.0 0.00 0.00 0.00 59 990.5
20260905110502 19 0.0 0.0 0.00 0.00 0.00 61 990.4
20260905105502 19 0.0 0.0 0.00 0.00 0.00 57 990.5
20260905104502 19 0.0 0.0 0.00 0.00 0.00 58 990.4
20260905103502 18 0.0 0.0 0.00 0.00 0.00 61 990.3
20260905102502 20 0.0 0.0 0.00 0.00 0.00 57 990.3
20260905101502 20 0.0 0.0 0.00 0.00 0.00 60 990.4
20260905100502 20 0.0 0.0 0.00 0.00 0.00 61 990.5
20260905095502 19 0.0 0.0 0.00 0.00 0.00 60 990.5
20260905093502 19 0.0 0.0 0.00 0.00 0.00 62 990.4
20260905092502 19 0.0 0.0 0.00 0.00 0.00 64 990.2
20260905091502 18 0.0 0.0 0.00 0.00 0.00 62 990.0
20260905090502 18 0.0 0.0 0.00 0.00 0.00 64 990.0
20260905085502 18 0.0 0.0 0.00 0.00 0.00 63 990.0
20260905084502 19 0.0 0.0 0.00 0.00 0.00 61 990.0
20260905083502 18 0.0 0.0 0.00 0.00 0.00 64 989.9
20260905082502 18 0.0 0.0 0.00 0.00 0.00 64 989.9
20260905081502 18 0.0 0.0 0.00 0.00 0.00 64 989.8
20260905080502 18 0.0 0.0 0.00 0.00 0.00 64 989.7
20260905074502 18 0.0 0.0 0.00 0.00 0.00 66 989.4
20260905073502 18 0.0 0.0 0.00 0.00 0.00 66 989.2
20260905072502 18 0.0 0.0 0.00 0.00 0.00 65 989.1
20260905071502 17 0.0 0.0 0.00 0.00 0.00 66 988.9
20260905070502 17 0.0 0.0 0.00 0.00 0.00 65 988.6
20260905065502 17 0.0 0.0 0.00 0.00 0.00 64 988.6
20260905064502 17 0.0 0.0 0.00 0.00 0.00 67 988.4
20260905063502 17 0.0 0.0 0.00 0.00 0.00 68 988.3
20260905062502 17 0.0 0.0 0.00 0.00 0.00 67 988.1
20260905061502 17 0.0 0.0 0.00 0.00 0.00 68 987.7
20260905060502 17 0.0 0.0 0.00 0.00 0.00 67 987.7
20260905055502 17 0.0 0.0 0.00 0.00 0.00 71 987.5
20260905054502 17 0.0 0.0 0.00 0.00 0.00 71 987.4
20260905053502 16 0.0 0.0 0.00 0.00 0.00 71 987.2
20260905052502 16 0.0 0.0 0.00 0.00 0.00 71 987.0
20260905051502 16 0.0 0.0 0.00 0.00 0.00 72 986.9
20260905050502 16 0.0 0.0 0.00 0.00 0.00 73 986.6
20260905045502 16 0.0 0.0 0.00 0.00 0.00 73 986.5
20260905044502 16 0.0 0.0 0.00 0.00 0.00 73 986.5
20260905043502 16 0.0 0.0 0.00 0.00 0.00 74 986.3
20260905042502 16 0.0 0.0 0.00 0.00 0.00 74 986.0
20260905040502 17 0.0 0.0 0.00 0.00 0.00 74 985.5
20260905035502 17 0.0 0.0 0.00 0.00 0.00 74 985.4
20260905034502 17 0.0 0.0 0.00 0.00 0.00 74 985.4
20260905033502 17 0.0 0.0 0.00 0.00 0.00 74 985.4
20260905032502 17 0.0 0.0 0.00 0.00 0.00 74 985.2
20260905031502 17 0.0 0.0 0.00 0.00 0.00 74 984.9
20260905030502 17 0.0 0.0 0.00 0.00 0.00 74 984.8
20260905025502 17 0.0 0.0 0.00 0.00 0.00 74 984.7
20260905024502 17 0.0 0.0 0.00 0.00 0.00 73 984.8
20260905023502 17 0.0 0.0 0.00 0.00 0.00 73 984.9
20260905021502 17 0.0 0.0 0.00 0.00 0.00 71 984.9
20260905020502 17 0.0 0.0 0.00 0.00 0.00 71 985.0
20260905015502 17 0.0 0.0 0.00 0.00 0.00 71 984.9
20260905014502 17 0.0 0.0 0.00 0.00 0.00 71 984.7
20260905013502 17 0.0 0.0 0.00 0.00 0.00 70 984.7
20260905012502 17 0.0 0.0 0.00 0.00 0.00 70 984.7
20260905011502 17 0.0 0.0 0.00 0.00 0.00 69 984.6